RH
24 20 21 23 20 16 16 19 19 17 15 19 23 24 23 21 20 15 14 25 31 28 23 18 19 17 15 19 23 26 29 31 33 36 39 41 43 46 48 49 50 51 53 55 57 58 61 65 66 66 65 63 71 85 91 91 94 97 97 96 97 98 99 99 98 94 88 88 94 98 99 96 93 91 89 88 91 94 91 88 90 88 88 90 83 80
25 21 20 19 17 17 18 19 18 19 19 21 23 25 23 21 19 13 19 29 30 28 21 16 19 18 17 22 25 28 31 33 36 37 40 42 44 48 50 51 52 53 53 54 55 56 58 61 65 67 67 65 68 80 92 96 97 99 99 99 99 98 99 99 98 96 90 88 89 88 86 86 86 88 89 86 86 91 92 91 91 87 88 94 87 79
23 21 21 19 18 19 19 21 22 24 25 24 21 22 23 21 17 16 25 29 24 27 22 15 17 16 18 26 28 30 34 38 42 43 44 45 46 49 53 55 55 55 55 54 55 57 57 58 62 65 67 69 70 74 85 95 98 99 100 100 100 99 99 99 99 98 91 89 91 84 79 83 87 89 91 90 88 89 91 91 93 90 86 91 89 80
16 17 21 22 21 20 17 19 25 26 26 24 21 20 20 19 18 19 26 26 23 25 22 19 21 18 22 30 31 34 38 41 45 48 49 51 52 53 57 59 59 58 58 57 57 58 58 57 58 61 65 68 71 71 75 84 90 94 98 99 100 100 100 99 98 99 95 93 96 94 91 93 95 94 94 95 94 92 92 89 89 91 88 88 90 83
16 19 25 26 23 21 21 20 24 26 21 18 20 21 21 21 21 19 20 21 20 20 24 29 24 19 25 31 34 37 39 41 44 46 49 51 54 57 59 61 62 62 61 59 60 61 62 59 57 58 59 61 67 71 72 76 80 84 90 96 99 100 100 100 98 97 97 98 100 99 99 99 98 99 98 98 98 95 93 90 87 90 90 89 92 89
21 24 27 26 23 23 27 23 21 25 20 14 17 22 23 21 21 20 18 20 19 15 25 33 20 15 23 27 32 37 38 41 43 43 46 48 52 56 59 61 62 64 63 61 61 64 66 64 61 57 52 51 54 61 68 71 75 78 81 86 92 96 98 100 100 98 95 97 99 100 100 99 98 99 99 96 93 90 87 87 87 89 90 90 91 94
23 26 27 25 24 25 27 23 22 25 20 16 23 26 24 21 20 22 20 22 21 14 20 26 17 15 19 21 29 37 39 43 43 42 43 45 49 53 58 61 64 65 66 65 64 65 67 65 64 61 54 47 42 44 51 57 64 70 73 77 82 88 92 96 99 100 98 97 97 99 99 99 99 98 98 95 89 86 86 86 88 90 91 91 91 94
24 25 26 24 25 23 21 21 23 24 20 21 27 27 24 23 22 23 22 22 20 15 17 17 16 18 16 17 30 36 39 43 42 42 42 44 49 52 56 60 63 65 67 69 69 68 69 67 64 59 52 45 40 37 37 39 45 52 59 66 71 77 82 86 92 95 97 99 98 98 98 98 99 99 99 99 96 95 94 90 89 90 91 90 90 90
26 23 24 26 24 19 18 21 23 24 23 25 29 28 26 25 24 24 22 21 17 18 21 14 15 22 16 21 35 35 39 46 45 44 43 45 50 53 56 58 59 64 66 69 70 70 73 74 72 65 53 42 36 35 35 33 32 35 41 48 55 63 69 73 79 84 89 93 97 99 99 98 99 99 98 98 99 99 99 96 93 91 88 88 89 88
25 25 26 28 24 19 20 23 26 26 25 30 35 31 29 28 27 27 24 21 19 24 28 18 14 19 16 25 34 29 36 47 45 44 45 47 53 55 56 57 57 60 64 67 70 72 72 74 77 76 67 55 42 33 32 32 31 29 30 32 37 44 52 60 65 71 76 81 87 91 95 98 98 99 99 99 100 99 99 99 98 95 90 88 89 88
30 36 33 31 30 27 24 24 30 32 27 32 34 27 25 24 21 23 21 19 25 29 27 17 13 16 15 23 33 35 43 47 43 44 46 48 53 55 55 56 56 58 61 65 70 73 72 71 73 73 71 66 56 41 31 28 27 27 26 26 27 28 34 43 50 57 63 67 73 79 84 90 93 96 97 98 100 100 100 100 99 99 97 95 93 91
32 37 32 34 37 33 29 26 32 39 35 32 28 20 22 19 14 18 19 22 31 31 21 12 14 15 14 24 41 50 52 48 45 47 47 49 53 56 56 57 59 60 61 64 69 73 72 68 67 67 65 63 59 54 48 41 34 28 25 23 22 22 23 28 34 41 49 54 60 66 71 77 82 87 92 95 97 98 99 100 100 100 99 99 99 97
20 26 29 38 39 34 30 22 22 32 32 27 21 18 22 22 20 21 20 23 28 24 15 13 16 16 18 34 46 48 48 46 48 49 48 51 55 56 58 59 61 62 63 66 69 73 73 69 66 65 64 61 55 55 54 52 47 41 38 32 25 23 21 21 24 26 33 41 47 54 60 65 70 76 82 88 93 96 97 98 99 100 100 100 100 99
17 24 30 35 34 34 30 16 13 19 19 17 16 17 23 25 29 32 24 22 23 18 12 13 19 20 27 43 46 41 44 46 47 50 51 53 56 58 60 61 61 61 64 68 71 74 74 73 70 68 68 66 59 54 50 45 41 39 42 44 40 37 29 21 21 22 24 27 32 40 47 54 60 66 71 78 85 91 95 96 96 97 98 100 100 100
19 21 24 23 25 33 29 18 20 22 18 16 14 16 24 24 29 34 28 26 28 21 15 16 22 24 28 42 45 40 44 46 46 49 52 55 57 59 62 61 60 59 59 64 69 72 72 71 69 66 66 68 65 62 59 56 49 38 33 35 38 47 46 32 23 22 22 24 24 28 33 40 48 56 62 68 73 80 86 91 95 95 96 97 98 100
19 16 19 24 26 27 25 22 27 26 19 16 13 16 22 20 22 27 25 25 27 27 24 19 23 34 40 43 43 43 45 46 46 48 50 54 57 60 63 61 59 59 56 55 60 65 69 68 66 62 60 60 62 62 61 65 67 58 46 36 31 40 50 46 36 28 23 24 24 24 26 28 34 41 50 57 63 69 74 79 85 88 92 95 95 97
23 17 15 22 25 22 23 26 28 24 16 14 16 18 19 18 19 25 27 23 23 30 30 18 21 40 51 49 44 44 47 47 46 47 48 50 53 56 61 59 56 56 54 51 50 55 62 64 61 60 57 56 59 61 59 62 68 67 61 52 43 40 42 43 44 40 31 27 25 25 25 24 26 29 35 43 51 58 65 70 75 78 81 85 90 93
27 27 16 14 20 25 30 33 31 27 23 18 19 21 20 21 20 23 30 31 32 37 31 19 19 28 42 55 55 50 54 55 49 47 46 45 47 50 53 53 51 53 52 49 46 47 54 58 57 57 55 53 56 59 59 61 63 63 58 55 54 54 51 46 41 40 38 36 31 27 26 26 26 26 27 32 38 46 54 60 67 73 76 78 80 82
25 30 20 11 16 25 30 33 30 28 29 25 24 24 22 28 29 26 32 37 40 43 37 30 25 25 44 65 67 62 63 62 53 49 48 46 46 46 45 44 45 50 50 46 45 44 48 54 55 55 53 49 51 55 58 60 60 57 53 50 52 55 60 60 52 43 39 39 38 33 30 28 27 28 27 28 31 36 44 51 56 63 70 76 79 80
23 29 26 15 15 21 20 21 19 19 25 27 27 25 22 27 31 30 33 35 40 45 44 40 32 36 57 66 65 68 67 61 58 54 50 47 45 42 39 37 37 43 45 43 44 43 46 52 53 53 52 48 48 54 56 56 56 53 50 50 52 54 57 61 62 56 46 40 38 36 33 32 30 29 29 29 30 32 36 43 50 55 60 68 76 82
24 27 27 17 13 17 14 13 12 13 18 21 25 26 25 27 27 29 33 31 39 46 47 53 47 45 58 59 58 67 64 58 59 55 50 45 41 37 32 31 31 33 38 40 43 44 45 52 53 51 52 49 47 51 54 55 54 52 51 50 53 57 59 59 61 61 55 47 42 38 36 35 33 32 32 31 32 34 36 39 45 50 54 58 64 72
24 23 26 23 19 19 16 11 12 18 21 21 25 25 25 27 28 38 43 35 44 53 58 71 65 52 60 59 56 62 60 58 56 51 49 42 34 32 28 27 28 28 30 34 40 43 44 50 52 47 49 51 48 49 53 54 54 53 53 53 54 57 60 62 63 63 61 56 49 43 40 39 38 36 35 33 33 35 38 40 42 45 48 51 55 61
31 31 33 33 26 22 20 16 18 25 24 22 25 22 26 36 41 55 63 55 57 58 55 61 56 56 71 67 59 64 61 58 55 48 45 37 29 29 27 27 28 27 28 30 34 40 42 45 47 44 46 49 48 49 51 51 52 52 51 52 54 57 60 63 65 67 68 66 60 52 46 44 42 39 37 39 40 38 39 42 43 42 43 46 49 54
37 36 33 35 28 19 17 16 20 24 22 24 26 25 37 51 54 59 63 63 67 60 51 52 51 64 84 75 64 65 58 53 51 43 39 34 28 28 28 29 30 28 29 28 29 35 39 42 43 42 43 46 47 47 46 48 50 49 48 46 47 52 57 60 65 68 70 74 75 69 58 48 42 41 41 44 45 41 40 43 46 46 44 43 45 48
45 36 33 42 41 33 27 23 25 24 24 28 26 31 50 61 63 62 56 55 60 53 49 55 57 66 81 78 67 58 50 48 46 40 37 34 31 32 32 31 31 31 30 29 28 33 38 39 38 37 39 44 45 43 41 45 49 50 50 47 45 47 51 57 63 64 68 75 80 81 78 70 61 52 44 44 44 41 40 42 46 50 50 47 46 46
53 42 37 47 52 51 48 43 37 32 32 33 33 43 60 71 76 71 58 57 63 62 60 66 71 69 68 71 67 56 51 49 44 40 37 33 33 33 32 32 33 32 31 30 32 35 38 39 37 36 39 42 43 41 41 43 46 49 51 50 49 48 50 56 62 64 69 75 78 83 89 91 88 73 52 45 45 41 43 47 48 52 54 54 56 54
55 47 38 42 47 48 47 41 34 35 39 40 46 56 60 68 78 73 66 69 75 81 75 64 74 78 64 63 68 59 52 46 39 37 34 30 31 30 29 31 32 32 32 31 33 36 41 44 42 41 43 44 43 43 44 46 47 49 52 51 52 51 50 54 61 68 75 79 82 86 87 89 94 85 62 49 47 42 44 53 59 61 60 59 62 63
54 55 48 48 48 43 41 36 31 36 38 38 52 64 59 62 73 75 77 76 74 87 82 59 66 77 65 65 69 57 48 43 36 35 33 31 32 30 29 30 31 33 32 31 34 39 45 50 49 47 47 47 46 45 46 48 49 52 54 54 55 55 53 55 63 72 80 84 85 87 89 90 92 86 68 53 47 43 45 57 70 74 69 64 64 65
54 58 56 63 61 46 39 36 32 32 30 36 54 61 55 59 70 75 77 68 65 83 83 63 61 64 59 63 61 48 43 40 36 36 35 34 35 34 35 36 36 36 35 35 38 41 46 51 52 51 50 48 48 48 49 50 50 52 54 55 57 59 59 61 66 72 80 85 86 89 94 92 88 81 69 56 49 46 51 61 71 73 70 68 67 65
54 56 56 67 67 52 42 35 30 28 31 44 56 54 52 57 60 64 66 58 57 64 59 52 57 54 50 54 50 41 40 38 36 37 35 34 36 36 38 41 40 40 41 41 42 45 51 55 54 53 53 51 51 51 53 54 54 54 55 55 57 60 63 66 69 71 78 85 91 96 92 80 77 79 76 70 62 55 56 64 69 70 69 69 68 67
61 60 58 63 65 56 41 28 27 29 35 52 58 49 49 54 54 60 61 55 57 59 50 52 61 54 44 44 44 41 41 40 38 37 35 35 37 39 41 42 41 40 41 42 43 47 52 53 54 55 55 57 60 60 60 60 60 60 60 61 62 65 68 71 73 77 85 92 97 96 79 66 74 88 92 89 77 60 57 64 69 71 69 68 68 67
66 67 62 59 64 57 36 27 32 29 31 57 71 58 51 56 58 59 56 50 53 58 60 63 63 56 47 44 45 43 41 41 39 37 35 35 37 39 40 41 42 42 43 44 45 48 50 49 51 55 61 67 69 67 67 66 67 68 68 68 69 69 71 75 78 84 92 98 97 85 69 70 87 98 98 93 79 63 61 65 69 72 70 68 68 67
67 76 68 58 65 58 36 33 38 26 29 61 77 65 55 55 56 55 53 48 45 50 61 64 59 57 54 49 46 42 38 39 38 36 35 34 35 36 35 38 42 44 45 47 47 46 47 46 46 52 65 74 72 70 74 75 76 77 75 71 71 73 77 81 86 93 95 93 88 79 74 84 98 101 96 87 75 67 67 69 71 73 71 70 70 69
69 73 63 56 68 67 47 37 36 37 53 71 66 55 54 56 58 63 61 53 45 42 46 53 57 59 55 47 43 41 40 40 39 37 36 34 33 33 35 40 45 47 48 47 44 43 44 46 51 59 70 76 74 76 82 84 84 81 75 73 78 83 82 75 78 92 97 90 84 86 91 97 100 101 94 82 72 69 71 75 78 75 71 70 72 74
71 66 57 55 63 65 51 42 48 61 74 72 54 47 54 53 51 59 59 50 44 41 43 55 62 55 45 39 38 41 43 43 42 41 39 32 28 31 37 41 46 53 53 47 44 47 52 58 68 76 80 81 82 85 88 88 88 83 79 84 92 96 91 78 78 92 100 96 92 95 100 100 100 101 92 78 72 73 76 81 82 77 73 73 75 79
62 57 54 54 58 61 57 54 58 61 62 64 56 49 57 60 56 64 69 55 41 41 50 61 57 43 38 40 40 42 44 42 42 42 38 32 29 33 42 49 53 56 55 56 60 65 71 79 87 92 93 91 89 90 90 90 90 88 92 96 95 92 91 89 91 97 101 99 99 100 100 99 101 100 87 77 78 81 82 86 84 78 75 76 80 84
45 46 52 57 56 58 58 53 48 44 47 64 73 62 61 66 59 63 75 63 48 49 52 51 48 44 43 45 44 44 44 45 45 39 34 36 37 37 45 57 62 60 62 72 74 64 59 63 67 73 80 84 84 85 88 93 96 97 100 100 93 89 90 90 90 96 100 100 100 100 99 100 102 98 85 81 87 89 89 89 84 78 78 82 86 88
36 38 46 53 49 46 52 54 55 53 51 65 77 63 54 56 45 45 63 63 52 51 48 44 49 50 46 46 47 47 51 56 53 40 35 42 46 49 58 65 66 67 72 80 76 60 48 46 49 59 72 81 88 92 94 97 100 99 98 98 97 97 97 94 94 97 101 100 99 100 100 100 101 96 87 87 93 94 93 90 84 79 81 88 92 91
36 35 36 43 45 46 54 63 65 60 56 67 72 55 46 50 41 42 61 57 39 41 47 48 51 50 46 49 51 53 62 69 61 47 43 47 51 61 72 72 70 75 79 78 74 68 65 65 70 79 88 93 96 96 95 95 98 98 97 97 100 99 97 97 99 100 101 100 100 100 99 100 101 96 92 94 98 97 94 89 84 80 83 91 97 97
43 43 43 47 51 51 56 63 57 46 49 64 63 48 43 44 41 55 73 58 38 44 52 49 48 49 49 53 55 59 67 70 62 52 49 52 57 67 74 74 76 80 80 76 72 71 76 83 86 85 88 94 96 96 96 95 97 100 100 100 102 101 99 100 101 100 101 100 100 100 100 101 102 99 98 100 100 97 93 88 83 82 88 95 99 101
54 51 49 48 52 54 58 63 55 42 47 59 53 42 42 45 50 68 74 57 48 54 52 46 49 53 54 56 59 60 62 61 58 54 54 58 66 72 75 76 77 76 76 79 78 74 77 86 89 89 92 95 96 97 99 100 100 101 101 101 101 99 97 96 96 97 99 100 100 100 98 97 98 100 101 100 97 94 90 85 83 86 92 99 101 102
70 66 56 50 57 59 56 61 60 47 43 51 49 41 44 58 69 70 61 54 55 53 47 48 54 58 60 62 63 62 59 57 56 57 60 65 69 73 75 75 73 72 75 82 85 80 78 82 90 97 100 99 98 98 99 100 101 100 100 100 100 99 97 95 95 97 99 100 99 95 93 95 98 100 99 95 92 91 87 83 85 90 96 101 102 102
74 72 62 53 61 68 62 64 69 58 41 42 50 49 51 63 71 63 54 55 54 47 47 55 58 60 63 63 62 63 63 62 60 59 64 72 75 76 76 74 73 74 76 83 90 87 84 88 95 100 100 99 100 101 100 100 100 100 100 100 99 100 101 100 100 100 99 98 96 94 96 98 98 95 91 88 88 89 88 86 89 94 99 101 101 101
69 74 73 64 65 78 79 68 59 52 42 41 50 52 52 57 59 55 52 52 49 48 54 61 62 62 63 62 62 65 68 72 72 69 74 80 79 77 76 75 75 77 80 88 94 91 91 96 100 100 101 100 100 100 100 100 100 99 100 100 100 101 101 100 100 99 97 97 98 99 98 95 89 84 80 82 87 90 89 89 94 97 99 101 102 101
60 68 75 72 65 70 75 62 47 44 44 42 43 44 48 54 54 51 50 49 49 55 61 64 66 65 63 66 69 71 72 75 75 77 83 85 82 80 81 81 84 89 92 94 95 94 97 101 100 100 101 101 100 100 101 101 100 100 100 100 100 100 100 100 100 99 99 100 100 97 92 84 78 75 74 78 86 90 90 92 98 100 100 101 102 101
59 59 62 66 61 57 56 47 41 43 41 37 40 44 50 53 51 49 50 51 55 62 65 68 70 69 70 76 78 74 72 73 76 81 85 85 84 84 83 85 93 99 97 96 97 99 100 99 99 100 101 100 100 101 101 100 100 100 100 100 100 100 100 101 101 100 100 99 95 90 83 75 72 72 73 78 86 91 94 97 100 101 99 100 102 101
57 59 59 60 60 66 65 49 38 40 39 38 45 51 52 52 50 51 55 58 64 68 70 73 76 75 78 82 80 74 73 78 84 85 82 81 83 84 84 89 96 96 95 99 100 95 94 97 100 100 100 100 100 100 100 100 100 99 100 100 100 100 101 102 102 99 97 94 89 83 76 71 70 71 72 77 86 91 95 99 101 101 100 100 100 100
63 63 62 58 58 67 67 47 36 41 45 47 54 56 53 52 53 55 61 66 69 71 75 79 78 76 79 80 75 75 83 90 90 84 80 82 87 90 93 96 97 96 97 97 89 82 89 99 101 100 100 100 100 100 100 100 100 100 100 100 100 101 102 102 102 99 96 91 85 81 76 71 69 70 71 74 80 85 90 96 99 101 101 102 101 101
67 63 60 61 64 64 54 43 46 56 57 56 57 57 56 56 59 64 69 71 70 73 78 77 71 74 82 82 77 84 96 97 88 84 88 93 95 95 97 99 99 97 94 89 85 87 97 101 100 99 100 100 99 100 100 100 100 100 99 98 98 100 101 102 101 98 95 92 87 83 80 76 72 70 71 73 75 78 83 88 92 95 98 99 101 102
67 65 62 68 76 72 60 54 61 67 65 59 58 60 61 62 66 72 72 70 72 75 74 68 69 80 87 85 86 95 99 92 88 92 97 97 96 96 98 98 95 90 89 92 96 99 100 100 99 100 100 99 100 100 100 100 101 101 100 99 99 99 100 101 100 96 94 95 94 89 86 81 75 71 70 71 72 74 76 78 82 89 96 98 98 99
66 70 71 78 84 79 69 61 58 60 60 59 60 64 65 66 72 75 71 70 75 75 69 71 81 89 88 86 91 95 91 89 95 99 98 97 99 99 96 92 90 92 97 101 101 99 99 100 100 100 100 100 100 100 100 100 100 101 101 101 101 102 101 100 100 98 96 97 98 94 89 85 80 75 71 69 68 70 72 73 75 81 92 100 99 97
Wind_Speed
1 5 7 7 8 8 7 7 10 13 14 14 13 11 12 13 11 14 11 2 4 4 9 10 9 10 5 6 9 10 14 14 13 12 12 12 13 14 15 16 17 18 19 21 23 25 27 28 26 22 20 13 4 2 1 2 4 8 11 13 14 20 28 30 29 30 34 41 44 46 49 50 49 48 46 46 45 43 42 40 38 36 36 36 34 33
2 7 9 8 7 7 7 8 10 11 12 12 11 10 11 11 12 14 7 3 4 2 7 8 8 9 1 8 8 9 12 12 11 11 12 12 12 13 15 16 18 18 19 22 24 26 28 30 29 27 25 20 12 7 4 2 3 7 11 12 10 10 17 26 30 29 31 38 41 40 43 47 48 47 46 47 48 46 45 45 43 40 42 41 36 34
5 7 4 3 5 6 6 6 7 9 10 9 8 9 10 8 11 11 1 4 2 3 7 9 9 8 4 9 8 11 12 11 12 11 11 12 12 14 15 16 17 18 20 23 25 27 28 30 31 31 29 26 21 15 8 3 4 7 9 11 12 10 9 15 25 29 30 36 41 39 38 42 46 48 47 47 49 50 49 49 48 47 46 43 39 36
6 3 4 6 6 7 10 7 7 8 8 8 7 8 9 8 10 8 0 2 4 6 10 10 10 7 6 10 8 11 12 13 13 13 13 12 13 14 15 16 17 18 20 22 24 26 27 29 31 32 31 29 26 22 16 10 5 6 9 11 13 12 9 7 15 25 29 34 40 41 41 42 45 47 47 46 48 50 51 50 50 48 45 43 42 40
9 4 5 6 6 7 9 8 7 7 6 7 8 8 9 10 11 11 8 8 10 11 12 9 9 6 8 9 7 9 10 12 11 12 13 13 13 13 13 15 17 18 19 21 23 24 26 28 30 31 31 31 30 28 25 20 15 11 10 11 13 13 11 8 8 15 23 29 35 39 42 44 44 45 45 46 48 49 49 49 50 48 46 45 45 43
7 4 4 6 5 5 6 7 6 4 6 8 6 5 7 10 11 12 13 11 10 8 6 7 8 4 9 11 9 9 9 10 10 10 12 12 12 12 13 14 16 17 19 21 22 23 25 26 27 30 32 33 33 30 28 25 21 17 13 10 12 14 13 12 10 10 14 19 25 33 40 44 45 45 45 45 45 47 48 48 49 49 49 48 47 46
3 2 1 4 4 5 6 7 3 1 6 7 3 5 5 8 11 12 12 8 7 8 2 6 7 6 5 10 12 12 10 10 9 9 11 11 12 13 14 13 13 15 16 18 21 22 23 25 27 28 30 32 33 32 30 28 26 22 18 14 11 12 14 14 12 11 11 11 14 20 29 37 41 44 46 45 43 46 48 49 49 49 51 51 51 50
2 3 2 2 4 6 6 4 1 1 6 5 2 4 5 8 11 11 11 8 7 10 9 9 8 8 7 7 14 15 12 11 10 9 10 11 13 14 14 14 13 14 14 15 18 20 21 23 26 27 29 30 30 30 30 30 29 27 24 21 17 13 12 13 13 13 12 11 11 13 17 22 28 33 38 41 42 45 47 46 46 47 49 50 52 53
2 4 2 2 5 6 4 3 3 4 6 3 4 4 7 9 11 11 10 9 8 9 10 10 8 7 7 6 14 13 11 10 9 9 9 11 13 13 14 15 14 14 14 14 15 17 18 19 21 24 27 29 29 28 29 29 29 28 27 25 23 20 16 14 13 13 13 13 13 14 15 16 18 21 24 28 32 36 40 43 44 45 46 46 48 50
1 1 2 3 4 5 4 3 2 4 6 4 7 8 9 10 11 10 8 8 8 7 11 13 9 8 6 6 11 9 8 8 8 8 8 10 12 13 14 15 16 15 15 15 15 16 17 17 18 21 24 27 30 30 28 28 28 27 27 26 26 25 22 19 16 15 14 15 15 15 16 17 17 18 20 21 22 23 27 34 39 42 45 45 43 43
3 3 1 1 3 4 5 5 3 6 7 7 8 10 10 11 10 8 7 5 6 8 12 15 12 11 8 4 6 3 4 7 7 7 7 9 11 13 13 14 15 16 15 15 14 14 16 18 18 19 21 24 29 33 32 31 30 28 27 26 26 25 24 22 21 19 17 16 16 16 17 18 18 19 20 21 22 21 20 24 28 33 38 41 41 40
5 2 1 0 2 2 4 6 4 5 4 4 6 8 8 9 7 6 6 4 6 8 8 7 6 9 9 1 5 6 7 8 7 7 7 8 10 11 12 13 13 14 14 15 14 13 14 17 19 19 20 22 25 29 31 33 33 32 31 29 27 25 24 23 22 21 20 19 18 16 16 16 17 18 19 20 22 22 23 22 22 24 28 33 36 39
3 1 2 2 1 2 4 6 3 3 3 3 5 7 8 8 6 6 6 5 7 9 3 2 1 5 4 3 8 9 9 8 9 8 8 8 9 9 10 11 12 13 13 14 14 13 14 17 19 19 20 22 25 26 27 30 32 33 33 32 31 29 26 25 23 21 21 21 21 20 18 17 16 16 17 18 20 22 24 25 25 24 24 26 30 34
5 2 4 1 1 3 2 8 8 4 4 6 7 7 7 7 7 8 9 8 9 10 4 3 2 3 1 6 9 10 10 10 10 10 9 9 8 8 9 11 12 14 13 13 13 12 13 14 15 16 17 19 23 26 28 30 32 33 32 32 33 32 30 29 25 22 21 21 21 21 20 20 19 17 16 16 18 20 23 26 28 28 28 27 28 30
9 4 1 1 1 3 2 5 7 7 9 9 7 6 7 7 8 9 8 9 10 11 10 5 1 4 2 5 10 11 11 11 10 10 9 8 8 8 9 11 13 14 14 13 12 12 13 13 13 14 15 16 18 21 23 26 29 32 32 32 33 32 31 31 29 26 24 22 22 21 20 20 20 20 19 17 17 18 20 23 26 29 30 31 31 31
11 7 2 2 2 4 5 3 1 6 9 5 3 5 6 6 7 9 10 13 14 12 12 10 4 2 3 7 10 11 10 11 10 10 10 9 9 8 9 11 13 13 14 14 14 13 13 14 14 14 15 16 17 18 18 19 21 25 28 29 30 29 29 31 31 30 28 25 22 21 20 20 20 20 20 20 19 18 18 20 23 26 28 30 32 34
8 9 7 5 4 4 4 3 3 6 6 3 4 6 6 5 7 9 12 13 14 12 9 10 7 2 6 6 9 10 9 9 9 10 11 10 10 9 10 12 14 14 14 14 14 14 13 14 15 14 14 16 16 17 18 18 17 19 21 23 25 25 25 28 30 30 30 28 25 23 21 20 20 20 21 21 21 21 20 19 19 22 24 26 29 32
6 12 14 13 7 2 1 4 9 13 10 6 6 5 7 6 7 7 9 9 11 12 9 10 13 7 3 3 7 9 7 8 8 9 10 10 11 11 12 14 16 15 14 13 14 15 14 15 15 13 13 15 16 16 17 18 19 19 19 20 21 20 20 23 27 29 30 30 29 27 24 22 21 20 21 21 21 22 22 21 20 19 21 22 25 28
6 10 12 9 6 3 2 5 9 12 14 10 5 5 5 7 7 6 8 9 10 12 10 11 16 11 3 3 7 8 6 7 7 9 9 10 12 13 14 17 17 15 14 13 14 15 15 15 15 12 11 14 15 15 17 18 18 20 21 21 21 19 17 18 21 25 28 29 31 31 28 26 24 22 21 20 21 21 22 22 21 21 21 20 20 22
6 7 9 7 6 6 4 5 8 5 7 9 5 4 6 7 7 8 8 8 10 13 12 12 13 6 5 6 7 8 7 6 8 9 9 11 13 15 16 18 18 16 15 15 15 15 15 15 15 13 12 14 16 16 17 18 19 19 19 20 20 19 19 18 19 23 27 29 30 32 32 30 28 25 23 21 21 21 22 22 22 22 22 22 20 20
6 6 9 11 11 10 7 7 11 11 8 8 7 7 8 7 7 8 9 8 9 10 11 11 11 3 6 6 7 8 7 6 8 8 9 12 14 16 17 18 20 19 18 17 16 16 16 15 15 14 13 14 16 17 18 20 20 19 19 20 20 19 19 20 21 24 28 30 31 32 32 32 31 29 27 25 22 21 21 22 22 23 23 23 23 22
6 6 9 11 10 9 11 13 13 10 9 9 9 9 9 8 8 9 11 8 5 7 8 10 12 5 5 5 6 8 6 6 8 8 9 13 15 17 19 19 20 20 20 20 19 18 17 15 15 17 16 15 17 18 20 21 20 20 21 21 21 20 20 21 21 22 25 29 32 33 32 32 33 32 30 28 26 23 22 22 23 24 25 25 25 24
3 5 9 10 9 12 18 16 6 3 5 6 8 6 7 8 7 7 11 9 8 10 10 10 13 6 4 5 6 7 6 6 9 10 12 15 17 17 19 19 19 20 21 22 21 19 18 17 17 18 17 16 18 19 20 20 20 20 21 22 23 23 23 22 22 21 22 25 29 32 33 34 34 33 32 30 29 28 26 24 24 24 25 26 26 25
1 4 8 9 10 12 16 8 5 5 4 5 7 7 6 6 7 6 9 9 8 11 11 11 12 4 3 3 5 6 8 9 11 13 15 18 19 19 20 19 19 21 22 23 23 22 19 18 19 19 18 17 18 20 22 22 20 20 21 22 23 24 25 24 24 23 23 24 25 28 32 36 36 34 34 33 33 32 30 27 26 25 25 25 26 26
4 6 8 10 10 10 11 7 2 4 6 8 12 11 8 8 10 8 8 8 9 12 12 12 10 3 3 1 4 8 11 12 15 17 19 20 22 23 23 22 22 24 25 26 26 23 21 20 21 22 21 19 20 24 26 25 23 22 21 21 22 23 25 25 24 24 24 24 25 25 28 31 33 34 36 36 35 36 33 30 27 26 25 25 25 25
6 7 8 9 11 12 12 11 11 13 11 10 14 12 9 11 10 7 8 9 9 10 11 10 7 5 2 2 7 11 12 14 18 20 21 22 23 25 27 27 27 27 28 30 29 26 24 23 24 24 23 23 24 27 27 26 26 24 23 22 23 23 24 25 25 24 23 23 24 23 23 23 25 31 37 37 37 38 36 32 28 26 25 24 24 25
5 7 10 11 13 15 16 16 19 18 15 14 14 12 10 10 9 7 7 8 8 8 8 7 9 11 10 8 10 12 14 15 18 22 26 27 27 29 31 31 32 31 32 32 30 29 27 26 24 24 23 24 26 27 26 26 26 26 25 24 24 23 25 26 25 24 23 21 20 20 21 20 21 30 38 38 36 36 35 32 29 26 25 24 24 26
5 8 12 14 16 17 19 22 23 20 19 19 15 12 11 11 10 8 7 9 10 7 7 10 15 16 14 11 12 14 15 16 19 24 29 31 32 34 34 33 33 34 34 34 31 29 27 25 24 25 25 26 26 26 25 25 25 25 25 25 25 25 26 27 26 25 23 20 20 20 19 19 22 32 40 38 35 34 32 30 29 28 27 26 25 25
6 8 9 10 15 19 20 22 22 20 21 16 11 11 12 11 10 9 8 10 10 7 9 14 18 18 15 11 12 16 18 19 23 28 31 33 34 34 34 33 33 33 34 33 30 28 27 26 26 27 27 28 27 26 25 25 25 25 25 25 26 26 27 27 27 26 24 22 21 19 18 22 31 39 41 38 35 33 32 30 29 30 30 29 26 25
4 7 10 11 15 20 20 21 21 22 19 10 11 11 12 11 10 10 8 10 11 11 13 17 20 19 13 10 14 20 25 26 29 32 33 35 35 34 33 33 34 34 33 30 28 28 27 26 28 29 30 30 28 27 26 25 26 26 26 26 27 28 28 27 27 27 26 24 20 19 25 35 40 39 36 34 35 35 33 31 30 30 30 30 29 27
5 8 13 13 14 16 18 19 21 22 13 8 10 12 12 11 11 9 9 11 12 14 16 18 19 16 10 13 19 24 27 29 30 33 35 35 35 35 35 35 35 34 32 29 29 29 29 29 30 31 31 31 30 28 26 26 26 26 26 27 28 28 28 27 27 26 24 21 22 27 38 43 40 32 25 26 33 37 36 33 31 31 30 29 29 28
6 8 11 11 10 12 17 19 21 22 11 6 10 14 13 11 10 9 10 11 12 15 17 17 15 11 10 15 21 24 27 29 30 32 34 35 35 36 37 37 36 33 31 31 31 31 32 32 33 33 33 33 33 30 28 27 27 26 26 27 28 28 28 27 28 26 23 24 30 37 42 39 32 25 21 25 34 39 38 34 32 30 30 29 28 28
4 6 9 10 10 11 17 20 19 19 13 1 6 10 11 11 12 11 12 13 14 14 13 13 12 10 12 16 19 22 25 27 30 32 34 36 36 37 37 36 34 32 32 32 32 33 34 34 35 35 33 32 30 27 27 28 27 25 26 28 28 27 27 28 29 28 29 32 38 40 38 32 26 23 25 32 37 39 38 35 32 30 29 29 28 28
6 8 9 9 8 11 17 19 16 14 9 1 4 6 8 10 12 13 14 14 14 12 12 14 13 11 15 18 20 23 26 29 33 35 35 36 36 35 34 33 32 32 33 33 33 34 35 35 36 36 33 28 25 25 27 27 25 25 27 28 25 24 28 34 34 34 37 41 41 36 30 26 23 25 31 37 38 39 38 35 32 30 29 27 27 27
8 10 9 8 7 10 13 14 13 10 3 4 3 6 9 9 12 15 15 14 16 18 18 14 12 14 21 25 28 30 32 34 36 36 36 35 34 34 35 34 34 33 33 34 35 36 36 36 36 35 31 28 26 28 28 26 25 27 27 25 23 26 34 38 37 35 37 37 34 28 24 21 21 26 34 38 38 38 37 34 32 30 28 26 26 26
8 9 8 7 7 9 9 9 11 9 1 6 1 7 10 10 14 16 15 15 18 19 15 11 13 21 27 31 32 33 34 37 37 35 33 31 32 35 36 35 35 33 32 33 33 33 34 33 32 31 28 27 28 29 28 27 26 26 24 23 28 34 37 37 35 33 31 28 25 24 23 21 23 30 36 38 37 37 35 33 31 29 27 26 25 24
8 7 7 7 7 7 9 9 10 10 3 3 3 8 9 11 14 14 14 15 11 7 11 14 17 23 29 31 32 34 36 34 29 28 31 32 34 38 37 34 33 32 30 29 30 34 39 39 38 37 35 33 32 31 30 28 25 24 24 27 32 34 33 33 34 32 29 28 27 25 22 21 26 34 37 36 35 35 33 31 30 28 27 26 25 24
9 9 7 7 7 7 9 9 8 10 8 2 5 9 13 18 20 17 16 13 3 8 21 23 20 25 29 30 33 36 32 23 16 20 30 35 38 40 36 31 30 30 28 27 31 39 45 46 45 41 36 32 31 29 27 26 26 29 30 30 31 31 31 33 33 31 29 28 26 24 23 25 30 36 36 35 34 33 31 30 29 28 26 25 25 24
11 9 6 7 8 7 8 8 7 9 6 2 4 13 20 25 25 19 15 10 7 21 31 27 24 29 30 32 35 31 21 13 11 19 31 38 39 38 33 29 30 30 29 30 32 37 40 40 36 31 29 29 30 30 31 32 32 33 32 31 31 32 33 33 30 26 25 24 24 24 24 26 31 35 35 34 33 31 30 29 28 27 25 24 24 24
10 8 6 7 7 7 9 8 7 8 5 1 6 18 27 28 23 15 11 9 16 30 34 29 30 33 32 34 32 21 14 14 18 28 40 43 39 34 30 29 31 31 32 33 33 34 34 33 33 32 32 32 32 32 34 34 32 30 31 32 32 30 29 26 23 22 25 27 27 25 23 24 30 34 34 33 32 30 29 28 27 25 24 23 22 22
8 6 5 7 8 9 10 9 8 8 4 2 12 26 30 24 16 9 9 15 26 35 35 32 34 34 32 32 28 20 21 28 33 40 45 43 37 32 29 29 32 34 35 32 29 29 32 33 35 34 30 27 29 31 32 30 29 31 32 31 29 28 28 28 27 28 30 29 25 24 25 28 31 32 32 31 30 29 27 26 25 23 22 22 21 21
6 5 5 6 7 8 8 8 10 8 2 8 23 30 24 14 8 10 18 27 32 34 34 34 34 32 31 31 29 28 33 39 43 44 43 41 38 33 30 31 34 37 37 33 27 28 32 35 34 31 26 26 28 30 29 29 30 32 31 28 27 28 29 29 29 27 25 23 24 27 30 31 31 31 31 29 28 27 26 24 22 21 20 20 20 20
4 5 6 5 5 8 9 9 8 6 8 20 28 22 13 10 14 21 29 33 32 32 33 34 32 31 31 32 34 36 39 42 42 42 42 41 36 31 32 32 33 36 38 33 28 30 36 37 32 28 29 30 29 28 29 30 31 31 28 27 27 28 28 26 23 22 23 26 29 31 31 31 30 29 28 26 25 24 23 22 20 19 19 18 18 19
2 2 5 4 3 5 6 6 7 10 19 27 24 16 16 21 26 30 32 31 31 33 32 32 31 31 32 35 39 40 40 40 40 41 41 39 34 32 33 33 33 36 36 30 29 34 37 33 29 29 32 32 30 29 30 29 29 28 26 27 27 26 24 23 22 25 29 32 31 31 30 29 27 26 25 23 22 21 21 20 19 18 17 16 17 17
1 2 5 5 4 5 7 10 15 22 27 28 25 25 30 32 30 29 30 30 32 33 31 31 33 33 34 37 39 39 39 39 40 41 39 35 33 33 34 36 36 33 30 29 32 33 30 27 30 34 35 32 30 29 28 27 26 26 26 27 26 24 23 25 28 31 32 31 30 29 27 26 24 23 23 21 20 19 19 18 17 17 16 16 16 16
2 4 6 6 8 11 12 14 20 26 28 29 30 31 31 30 29 29 30 31 32 32 31 32 33 34 37 37 35 37 40 41 40 37 34 33 34 36 39 40 36 29 29 32 31 29 29 33 36 35 32 30 30 29 27 25 24 25 26 25 24 25 27 29 30 30 29 28 27 26 24 23 23 21 21 20 18 18 17 16 16 16 16 16 15 15
1 4 7 8 9 10 10 13 20 26 30 32 33 30 27 27 28 29 31 32 33 32 33 32 33 37 38 34 33 38 41 37 34 34 35 37 40 40 40 37 33 32 33 31 30 35 40 39 35 30 29 30 30 28 26 25 23 24 24 23 24 27 29 29 28 27 27 26 25 24 22 22 21 21 20 19 17 17 16 14 14 15 16 15 13 13
3 6 8 9 10 11 14 19 27 31 30 28 26 26 26 28 29 30 31 31 31 33 32 31 34 38 37 34 36 40 37 31 31 36 41 42 40 38 36 34 33 33 33 33 40 46 42 33 28 28 29 29 28 26 25 24 23 22 22 23 25 27 28 28 27 27 27 25 23 23 23 22 22 22 21 19 18 17 16 14 14 14 15 14 14 15
6 9 10 11 13 13 14 20 27 28 24 22 23 27 29 31 33 32 31 30 31 32 32 33 36 36 33 34 37 34 29 29 34 39 41 39 37 35 33 32 32 34 38 43 46 41 32 26 27 29 29 27 26 25 24 22 22 22 23 25 27 28 28 29 28 28 27 25 24 24 23 23 22 21 20 20 19 17 16 15 14 14 14 13 13 14
6 9 10 11 12 10 12 20 24 20 18 22 29 31 32 33 32 31 31 33 32 31 33 38 39 33 29 31 31 26 26 33 37 37 37 36 34 32 31 32 36 42 44 43 37 30 26 27 28 28 27 26 25 24 22 21 21 23 25 27 29 29 29 30 29 28 27 26 25 24 23 22 21 20 20 19 18 18 18 16 15 14 14 13 13 12
7 8 9 10 11 14 20 27 28 24 24 29 32 33 33 33 30 29 32 33 30 31 36 38 35 32 31 30 26 24 30 37 36 34 35 34 31 29 32 38 44 44 39 33 29 27 28 28 28 27 26 26 25 23 21 22 24 25 25 27 29 30 30 29 29 28 27 26 25 24 23 22 21 20 20 19 19 19 19 18 16 14 12 12 13 13
Wind_Direction
274 273 252 254 270 286 298 290 285 292 296 294 289 284 280 281 280 282 287 114 105 297 276 271 274 278 286 77 73 65 70 69 67 66 60 54 50 44 41 37 34 32 26 20 19 19 19 22 27 29 26 20 3 332 317 205 226 239 246 261 267 259 255 254 254 252 247 243 238 235 234 235 236 237 235 232 232 233 233 232 231 233 235 231 226 225
236 259 259 266 292 319 324 315 304 293 289 285 278 277 277 275 279 285 292 96 110 251 277 278 273 273 203 97 83 77 73 67 66 65 61 57 53 48 42 39 36 32 27 23 22 21 22 24 28 31 31 31 29 16 347 277 230 238 239 245 260 266 256 253 255 254 252 251 245 242 244 242 240 242 242 239 237 235 232 232 231 232 232 228 224 224
238 251 272 346 1 343 312 298 295 286 278 274 272 273 275 279 285 289 345 109 161 219 280 285 275 273 121 106 91 87 84 76 72 68 65 60 55 50 43 38 34 30 27 24 23 22 22 23 27 30 31 32 34 32 21 339 272 258 262 267 267 270 275 262 254 256 260 256 247 246 250 248 244 243 243 242 241 238 233 231 231 230 231 229 225 223
276 288 40 16 356 320 300 293 284 282 273 260 263 267 274 294 300 296 203 182 238 240 264 281 280 263 137 114 97 94 97 94 85 77 71 63 59 54 46 41 34 31 27 23 22 21 21 22 25 28 28 31 35 36 32 21 346 295 288 287 277 273 286 282 250 248 255 255 248 243 241 242 243 243 242 241 240 239 237 235 235 234 236 236 231 226
279 338 24 333 316 307 299 295 284 280 284 270 264 267 276 297 302 296 298 295 288 263 242 254 277 245 166 147 125 114 113 105 96 86 75 65 62 56 50 46 39 35 30 25 22 20 21 22 23 26 29 32 36 36 33 29 21 360 326 299 289 286 287 295 272 248 248 250 250 246 241 239 241 241 242 241 241 241 241 240 239 240 241 241 238 232
281 341 351 313 305 301 291 290 290 286 297 290 285 297 296 302 301 294 300 304 301 284 206 202 279 268 167 169 152 139 132 113 100 89 80 68 62 56 49 45 39 37 33 29 26 22 21 21 22 26 30 34 35 35 35 33 30 22 3 330 299 290 288 292 291 271 254 249 247 246 245 244 244 243 244 246 249 249 250 247 243 242 242 241 241 238
289 330 301 303 305 294 280 273 279 316 300 298 336 1 330 301 294 291 299 297 284 297 233 187 266 289 200 182 159 148 136 118 108 91 83 73 62 56 50 43 37 34 31 28 27 24 24 24 24 24 26 31 34 35 36 36 35 32 23 9 339 307 297 297 296 288 272 257 246 243 245 248 249 249 249 253 257 256 255 253 247 243 241 240 240 238
222 273 232 269 299 293 290 284 37 0 297 301 28 348 316 295 288 288 292 280 269 289 277 227 230 261 257 187 150 146 136 121 112 95 83 73 63 58 52 44 38 32 27 25 22 22 23 24 25 24 25 27 30 33 34 35 34 33 31 26 15 356 328 314 307 301 292 280 266 255 250 248 250 250 250 252 255 253 252 253 253 250 247 245 244 241
196 275 277 322 308 298 321 3 18 313 277 324 23 325 299 286 280 280 277 270 272 283 279 258 217 234 261 160 143 149 141 125 110 96 81 70 62 58 53 44 38 32 27 23 19 18 19 19 21 21 21 22 25 28 29 29 30 29 29 28 24 18 5 347 327 312 306 300 291 280 268 259 254 252 251 253 254 253 251 252 253 253 252 252 250 247
233 341 26 349 303 302 345 0 341 274 260 333 344 299 281 267 259 261 258 263 272 261 266 266 230 231 260 155 156 175 154 130 115 98 79 71 64 56 52 43 36 32 26 21 17 15 15 13 13 14 14 15 16 19 20 21 23 23 24 24 22 19 15 7 354 335 318 307 300 294 286 279 272 263 258 254 253 256 257 256 256 255 255 256 255 253
232 102 81 297 294 318 340 313 248 243 273 324 317 288 283 269 250 242 242 252 266 251 257 263 246 241 253 147 139 170 115 104 112 104 83 75 67 56 51 41 34 30 24 20 16 14 14 12 11 12 11 10 11 12 12 12 12 13 15 16 16 15 12 9 5 357 344 328 313 303 297 292 287 280 273 265 257 255 256 257 257 258 259 259 258 258
225 172 143 141 322 317 304 282 223 208 262 301 287 283 296 289 266 240 235 223 240 257 264 269 253 242 247 191 92 95 85 78 87 93 84 75 69 61 52 42 34 27 22 19 16 13 11 10 11 11 9 10 11 10 8 7 6 6 6 5 6 7 6 4 1 359 355 349 339 326 313 302 295 289 282 276 270 263 258 256 255 256 257 257 257 258
281 180 107 97 1 245 275 306 297 186 205 245 278 292 300 304 297 271 263 243 254 276 289 79 341 256 250 94 105 111 98 85 79 78 79 77 73 65 51 39 30 23 18 14 12 9 4 5 7 7 6 7 9 8 7 5 4 4 3 1 359 358 358 358 356 353 351 350 347 342 334 324 312 300 288 279 275 270 265 262 259 257 254 251 254 257
335 105 129 156 147 183 271 327 323 303 290 286 298 311 301 301 300 287 284 277 276 284 290 78 64 255 211 103 115 112 97 91 84 77 74 71 68 58 42 29 20 15 11 7 5 2 0 1 2 2 2 3 3 3 4 3 2 1 0 359 358 355 352 353 353 349 345 343 342 341 339 336 329 319 308 292 280 272 266 263 261 260 258 254 253 256
324 324 85 352 59 155 243 316 308 302 300 287 291 305 286 282 284 280 285 287 287 291 288 287 279 260 248 114 111 105 98 92 84 76 69 62 55 44 31 20 11 6 1 357 355 355 358 359 358 360 0 0 1 -0 0 359 357 357 358 356 355 353 349 349 350 350 346 341 338 337 334 333 331 327 323 313 300 285 273 266 261 259 258 257 257 258
313 308 24 60 159 202 276 313 294 288 291 283 283 282 271 278 282 275 278 282 283 287 283 270 264 25 73 111 112 107 102 93 79 66 57 49 39 28 20 13 4 357 354 352 350 348 350 354 355 358 0 359 358 358 358 356 352 353 355 354 354 353 349 347 347 348 347 343 338 336 332 329 326 323 321 317 313 305 292 280 271 265 260 257 257 257
316 299 309 313 231 212 283 298 211 249 280 316 283 281 305 304 281 277 279 278 276 274 273 269 267 119 119 136 129 121 106 87 72 55 46 37 27 19 12 4 353 348 346 347 348 345 343 347 348 351 356 356 356 355 355 355 351 349 349 350 352 352 349 347 346 346 346 344 340 337 334 331 325 319 316 313 311 309 306 298 287 278 270 263 259 256
326 296 302 312 302 264 246 264 250 237 241 274 283 313 336 287 249 262 275 277 278 274 271 276 276 261 199 161 140 133 107 80 62 40 31 22 19 15 5 353 345 342 341 340 344 343 338 340 342 343 348 351 351 349 350 350 348 347 346 345 347 347 344 344 344 344 345 344 342 340 337 334 329 322 316 311 308 306 305 304 301 293 283 273 266 262
330 297 302 319 324 319 203 247 269 235 216 236 291 343 319 274 265 272 274 280 283 280 279 279 280 285 335 88 133 126 90 69 41 22 19 13 10 4 354 349 344 342 340 338 341 341 337 335 334 334 338 344 346 344 344 345 343 342 342 341 342 341 337 336 338 341 343 343 343 342 340 337 333 326 319 312 307 304 301 300 300 297 294 286 276 268
317 292 295 312 321 311 264 255 301 294 220 234 280 298 259 259 275 271 275 287 284 282 285 282 278 293 48 73 105 93 69 50 24 15 15 8 2 355 351 350 348 344 339 336 336 337 336 333 330 329 330 337 341 339 340 339 337 337 336 336 337 336 334 332 332 336 340 342 342 342 341 339 335 331 326 318 310 304 300 297 295 293 292 288 282 273
304 279 284 300 306 302 297 300 312 318 302 282 288 285 269 264 271 274 279 282 280 282 286 288 285 298 74 75 85 80 61 36 21 13 7 0 355 353 352 350 348 345 340 335 332 332 332 330 328 326 323 328 334 335 337 337 334 334 334 333 332 332 332 331 330 331 335 338 340 341 341 338 336 334 330 324 316 308 301 295 292 288 285 283 282 278
315 294 285 296 303 293 294 304 306 305 307 303 295 290 290 292 294 292 287 288 303 301 298 298 294 308 74 77 73 66 49 26 13 2 358 354 351 350 350 348 347 345 342 336 330 327 328 327 327 325 320 323 329 331 333 335 333 331 331 331 330 329 328 327 326 327 328 331 335 338 338 337 336 334 332 328 323 315 305 296 290 286 283 280 279 278
319 285 279 280 286 288 291 299 325 12 333 297 284 305 325 323 329 315 299 310 322 306 305 301 291 303 63 75 69 56 30 12 2 353 348 345 345 345 345 344 343 342 342 338 332 326 324 323 323 322 319 318 322 326 328 329 327 325 324 325 325 325 324 323 322 322 322 323 328 332 334 335 334 332 332 331 327 321 312 301 292 287 284 281 278 275
15 273 288 286 283 288 290 293 95 77 341 294 296 340 20 5 355 329 301 307 304 295 300 292 287 310 72 83 66 45 14 1 352 346 342 337 337 339 340 340 340 340 339 337 332 325 319 319 320 320 318 315 317 321 323 323 321 319 318 319 319 319 319 318 318 319 319 317 320 325 328 330 331 331 332 331 327 322 316 307 298 291 286 283 280 277
332 296 307 308 301 301 301 307 349 331 326 321 318 339 29 24 354 324 298 297 287 293 302 291 291 348 98 121 20 13 5 355 344 341 339 336 335 336 336 336 337 338 336 333 330 324 317 317 318 318 316 314 315 318 319 318 317 316 315 314 315 315 313 312 311 312 313 312 314 317 321 326 328 329 329 328 325 322 317 310 302 295 291 286 283 280
300 295 306 308 306 310 313 318 324 322 321 317 319 337 18 24 4 335 310 299 296 316 321 302 304 347 12 16 3 359 357 348 339 336 334 334 334 333 332 331 331 334 333 331 329 324 318 315 315 315 313 312 314 316 316 316 315 315 314 313 314 314 312 308 305 305 305 306 309 309 313 319 321 323 325 324 322 320 316 311 304 297 293 291 289 285
280 287 297 298 297 303 309 314 319 319 316 318 330 350 13 16 3 339 313 307 322 333 319 320 341 334 331 357 2 351 347 341 336 333 331 331 332 331 330 329 326 327 329 328 325 321 316 312 311 312 309 309 311 312 314 315 314 313 313 314 314 314 313 309 303 300 298 300 301 303 309 312 311 317 320 320 319 317 313 310 307 302 296 293 291 289
289 290 297 297 296 300 306 311 316 318 316 323 342 4 9 6 359 350 336 335 347 334 300 333 344 325 324 351 353 341 340 337 333 332 330 328 327 326 326 325 322 322 323 323 320 317 314 309 307 309 308 307 309 309 311 313 313 313 313 313 313 312 312 309 302 297 294 294 297 299 303 307 309 314 316 316 316 315 313 310 308 305 300 295 291 289
299 294 308 309 303 306 308 311 317 320 319 334 13 22 8 8 9 0 348 346 355 336 308 329 329 314 319 344 341 334 334 331 328 328 326 324 322 321 322 321 319 318 319 319 317 316 314 309 307 309 309 308 307 307 310 312 314 314 313 313 314 311 308 306 302 297 291 291 296 297 301 307 310 312 313 315 319 321 318 311 305 303 301 297 294 290
323 300 327 330 310 308 311 313 319 322 325 1 43 27 14 11 359 352 342 342 347 334 322 325 318 308 318 342 337 331 330 327 326 324 322 321 320 319 319 318 316 316 316 316 316 316 315 312 311 310 309 307 306 306 308 310 312 313 314 314 314 312 308 303 300 296 291 291 293 297 306 311 311 311 312 314 320 324 320 311 304 301 300 297 295 293
340 314 328 329 310 307 312 316 322 324 333 55 55 22 20 10 356 358 346 340 342 332 324 322 312 302 316 336 329 325 325 323 321 321 320 320 318 318 316 314 313 313 314 315 316 316 314 312 310 309 308 307 305 304 304 307 309 310 312 313 313 312 309 302 297 293 289 288 292 300 308 312 312 310 308 309 316 322 320 312 305 302 299 296 294 294
335 321 323 320 307 309 315 320 328 326 327 77 54 15 12 9 3 0 341 335 336 328 322 317 307 299 312 323 320 319 321 320 318 319 318 317 317 315 312 309 309 313 315 315 316 314 312 310 309 308 307 305 302 299 300 304 307 309 312 313 313 312 309 303 297 292 285 284 292 301 308 311 309 304 301 305 313 319 318 312 306 303 301 297 295 294
341 315 315 319 309 307 317 326 332 324 313 8 48 16 9 5 356 344 331 328 328 326 320 309 300 300 311 317 318 319 321 319 317 317 316 316 314 311 309 310 312 316 317 315 315 314 312 312 311 309 307 304 301 299 302 306 307 308 311 312 311 311 310 305 298 289 284 288 295 302 305 305 301 298 299 306 313 316 315 310 306 303 302 300 297 295
331 315 316 326 314 306 320 330 330 323 318 7 75 32 9 355 346 333 320 316 316 315 308 300 297 304 314 318 320 320 320 317 316 315 314 314 314 312 314 319 321 319 316 315 315 315 314 313 313 311 308 306 306 305 307 307 306 307 310 308 307 307 308 308 301 289 286 292 296 298 296 295 293 294 299 307 313 313 311 308 305 304 303 301 299 296
326 328 325 327 316 309 324 333 327 325 346 136 119 25 359 341 336 328 315 310 313 313 312 310 311 315 318 319 321 320 317 315 314 312 311 313 318 320 321 321 320 317 316 316 317 319 319 319 318 317 314 312 313 312 310 307 304 307 307 304 303 307 310 312 306 293 288 292 293 290 288 289 289 293 301 309 312 310 308 306 306 306 305 303 300 298
339 336 330 327 321 319 330 334 324 323 37 149 133 356 352 342 341 334 319 314 316 315 318 323 322 322 322 320 319 318 316 315 313 310 309 315 324 327 323 319 317 316 318 322 324 327 329 329 327 325 321 318 316 314 310 307 305 305 302 298 302 307 309 310 304 294 289 289 288 287 288 288 290 297 305 310 310 307 306 306 306 307 306 304 302 299
359 341 333 329 327 330 330 323 314 309 300 126 35 350 347 340 336 331 316 309 307 317 337 337 327 324 323 319 318 318 318 316 312 310 314 319 324 324 321 317 317 319 322 325 325 325 327 328 324 320 316 313 311 309 308 306 304 302 300 301 305 307 306 304 300 293 288 286 287 289 290 287 292 300 307 310 308 306 305 306 306 307 307 306 304 302
359 346 336 327 328 335 326 318 318 312 309 23 20 347 343 336 330 326 313 300 295 5 346 338 326 320 320 319 319 320 320 316 307 311 320 323 322 321 318 317 320 322 325 327 325 324 325 324 321 317 313 311 310 309 309 306 305 305 304 305 307 307 304 302 298 291 285 286 289 291 290 290 295 302 307 308 307 305 306 306 306 307 307 306 304 304
351 346 338 326 326 333 324 315 313 311 311 48 9 343 343 336 330 324 304 291 353 353 339 329 320 319 320 319 320 321 320 314 307 314 321 322 321 320 320 322 325 324 324 325 325 326 326 325 322 318 315 313 313 313 310 307 308 308 306 304 306 306 304 300 294 288 286 291 296 296 291 291 297 304 307 307 305 305 305 306 306 306 306 305 304 306
345 341 336 332 328 326 322 310 298 304 317 28 342 342 341 334 326 317 293 303 340 335 327 322 319 318 318 318 319 321 317 311 311 314 318 319 318 319 321 324 325 324 321 318 318 322 324 324 320 316 313 312 312 313 312 309 308 306 305 305 306 305 304 299 291 289 293 298 300 295 289 292 299 304 306 304 303 304 304 305 305 305 305 304 305 305
335 334 329 330 328 322 316 306 297 304 307 313 333 338 336 327 319 312 302 316 324 320 319 320 317 315 316 317 318 317 312 311 312 313 315 316 316 319 322 323 323 323 319 314 313 318 321 319 315 312 311 312 313 313 312 309 307 306 306 306 304 302 302 300 297 299 302 302 298 293 293 298 302 303 303 302 302 303 303 304 305 304 303 303 305 305
332 334 325 324 327 322 311 301 299 300 337 347 331 330 331 327 318 312 309 312 314 314 315 316 314 313 316 316 314 313 312 312 313 313 315 315 315 317 321 322 322 321 317 311 310 316 319 316 311 309 310 313 314 314 311 308 308 308 307 305 303 303 304 304 304 305 305 302 299 299 302 305 305 304 303 303 303 303 302 304 305 303 302 303 305 305
322 322 320 325 330 318 305 302 300 299 337 337 328 324 334 333 315 309 309 309 311 314 315 313 312 313 315 314 313 313 312 312 314 315 315 315 314 317 320 321 322 321 317 310 308 314 317 313 308 308 312 315 315 315 313 310 309 309 307 305 306 308 309 309 308 304 304 306 306 306 307 307 307 306 306 306 306 305 304 305 306 303 303 304 306 305
221 300 314 322 331 312 299 298 297 297 312 321 319 315 318 315 309 309 310 309 312 314 314 311 310 311 313 314 314 313 312 312 314 316 316 315 315 316 318 318 319 319 315 310 310 315 316 312 310 312 314 314 314 314 314 312 310 310 308 307 311 316 315 310 305 304 307 310 310 310 310 310 309 309 308 309 309 307 306 308 307 305 305 306 305 304
285 316 312 307 294 280 269 275 291 299 305 312 314 311 310 309 308 310 310 310 312 313 312 310 309 311 314 314 313 315 315 315 315 317 318 318 317 318 318 318 317 317 315 313 314 316 317 316 316 315 313 314 315 315 315 314 313 311 309 311 316 319 314 307 305 307 310 312 313 313 313 313 313 313 312 313 313 311 310 311 311 310 308 306 304 301
309 310 311 305 297 294 285 282 294 303 308 311 312 309 308 308 310 313 313 313 312 312 311 310 310 313 316 316 316 317 316 315 316 318 321 321 319 318 318 316 316 318 320 319 318 319 320 319 317 313 312 315 317 317 318 317 314 313 314 316 318 314 310 310 312 313 315 316 317 318 318 319 320 320 318 317 316 314 313 314 313 310 307 306 303 299
283 309 307 298 299 305 296 293 304 310 312 311 310 308 308 310 312 315 316 314 312 312 312 313 315 317 316 316 319 317 315 315 320 323 323 321 317 316 316 316 316 319 321 319 318 320 320 318 315 313 314 316 318 319 320 319 317 317 318 318 316 313 314 318 320 320 321 323 324 325 327 328 328 326 323 320 318 315 313 312 309 305 303 303 299 294
290 314 311 301 302 297 288 297 309 312 310 307 306 307 311 314 315 315 314 312 312 313 313 316 319 318 314 315 317 316 314 318 324 323 321 318 317 316 317 319 320 320 319 317 317 319 319 317 315 316 316 316 317 319 320 320 321 321 320 319 318 319 322 325 325 325 326 329 331 333 334 334 331 328 326 324 320 317 315 313 308 302 299 295 290 288
285 304 305 304 304 295 291 306 317 317 312 310 311 311 313 315 316 315 315 314 314 314 315 316 317 315 313 314 315 314 316 321 322 320 318 317 317 318 319 320 322 321 320 319 318 319 318 317 317 317 316 316 317 319 320 321 322 323 324 324 325 327 328 327 327 328 330 332 335 336 335 333 331 329 328 326 323 320 317 314 311 307 302 295 290 289
291 305 306 307 307 302 304 314 318 315 308 308 312 312 313 315 315 314 316 317 316 316 318 317 315 314 315 315 315 315 318 319 318 318 317 316 317 319 320 320 320 318 318 318 318 318 318 317 318 318 317 317 317 318 319 321 323 326 330 332 332 330 328 327 328 328 330 332 333 332 331 331 331 331 330 329 327 324 320 317 316 314 309 304 298 291
273 287 286 288 291 293 300 308 310 306 298 300 305 309 310 312 312 312 316 316 315 318 320 318 316 316 317 316 316 317 317 316 316 317 316 315 316 317 317 317 317 317 317 318 318 317 317 318 319 319 318 318 318 318 317 319 322 325 329 332 334 331 328 327 326 327 328 330 329 328 329 330 332 332 333 332 332 330 326 323 321 318 312 304 300 297